User: anonymous   Login
Location: Santa Barbara
(34.4500°N, 119.7700°W)
Time: 00:33:28
(UTC-07:00)
Language:

Cosmos 1892 Rocket - Orbit

View from above orbital plane
View from above orbital plane
View from above satellite
View from above satellite

Ground track
Ground track

The orbit data is extracted from the following two-line orbital elements,

1 18422U 87088B   17230.83437073 +.00000072 +00000-0 +59024-5 0  9990
2 18422 082.5121 118.1857 0018358 230.0855 175.9364 14.82934016590015
Epoch (UTC): 18 August 2017 20:01:29
Eccentricity: 0.0018358
inclination: 82.5121°
perigee height: 607 km
apogee height: 633 km
right ascension of ascending node: 118.1857°
argument of perigee: 230.0855°
revolutions per day: 14.82934016
mean anomaly at epoch: 175.9364°
orbit number at epoch: 59001

The dashed part of the orbit path shows where the satellite is in the earth's shadow,  

DLR